Tiempo cada hora Barra Velha

Hoy, 26 Febrero, Viernes

Tiempo Temperatura Precipitaciones Viento Presión Humedad
00:00 +21°C° 1.2 mm 3 mps 760 mmHg 98%
01:00 +21°C° 0.5 mm 3 mps 760 mmHg 98%
02:00 +21°C° 0.5 mm 3 mps 760 mmHg 98%
03:00 +21°C° 0 mm 3 mps 760 mmHg 98%
04:00 +20°C° 0.3 mm 3 mps 760 mmHg 98%
05:00 +20°C° 0.3 mm 3 mps 760 mmHg 98%
06:00 +20°C° 0.3 mm 3 mps 759 mmHg 98%
07:00 +21°C° 0.3 mm 3 mps 760 mmHg 92%
08:00 +22°C° 0.3 mm 3 mps 761 mmHg 87%
09:00 +25°C° 0.3 mm 3 mps 761 mmHg 82%
10:00 +26°C° 0.3 mm 4 mps 761 mmHg 78%
11:00 +27°C° 0.3 mm 4 mps 761 mmHg 75%
12:00 +28°C° 0.3 mm 4 mps 761 mmHg 71%
13:00 +28°C° 0.2 mm 5 mps 761 mmHg 68%
14:00 +29°C° 0.2 mm 5 mps 760 mmHg 65%
15:00 +29°C° 0.2 mm 5 mps 760 mmHg 61%
16:00 +28°C° 0.1 mm 5 mps 760 mmHg 66%
17:00 +28°C° 0.1 mm 5 mps 760 mmHg 71%
18:00 +27°C° 0.1 mm 5 mps 760 mmHg 76%
19:00 +25°C° 0.5 mm 4 mps 760 mmHg 83%
20:00 +23°C° 0.5 mm 4 mps 761 mmHg 89%
21:00 +22°C° 0.5 mm 3 mps 762 mmHg 96%
22:00 +22°C° 0.4 mm 3 mps 762 mmHg 96%
23:00 +22°C° 0.4 mm 3 mps 761 mmHg 97%

Mañana, 27 Febrero, Sábado

Tiempo Temperatura Precipitaciones Viento Presión Humedad
00:00 +22°C° 0.4 mm 3 mps 761 mmHg 97%
01:00 +21°C° 0.7 mm 3 mps 761 mmHg 97%
02:00 +21°C° 0.7 mm 3 mps 761 mmHg 97%
03:00 +21°C° 0.7 mm 3 mps 760 mmHg 97%
04:00 +21°C° 0.8 mm 3 mps 761 mmHg 97%
05:00 +21°C° 0.8 mm 3 mps 761 mmHg 97%
06:00 +21°C° 0.8 mm 2 mps 761 mmHg 97%
07:00 +22°C° 1.2 mm 3 mps 761 mmHg 97%
08:00 +24°C° 1.2 mm 3 mps 762 mmHg 97%
09:00 +25°C° 1.2 mm 3 mps 762 mmHg 97%
10:00 +25°C° 2.2 mm 3 mps 762 mmHg 96%
11:00 +26°C° 2.2 mm 4 mps 762 mmHg 96%
12:00 +26°C° 2.2 mm 4 mps 762 mmHg 96%
13:00 +26°C° 2.9 mm 5 mps 761 mmHg 96%
14:00 +26°C° 2.9 mm 5 mps 761 mmHg 96%
15:00 +26°C° 2.9 mm 5 mps 761 mmHg 96%
16:00 +25°C° 2.1 mm 5 mps 761 mmHg 97%
17:00 +25°C° 2.1 mm 5 mps 761 mmHg 97%
18:00 +23°C° 2.1 mm 5 mps 761 mmHg 98%
19:00 +23°C° 1.8 mm 5 mps 761 mmHg 98%
20:00 +23°C° 1.8 mm 5 mps 761 mmHg 98%
21:00 +23°C° 1.8 mm 5 mps 762 mmHg 98%
22:00 +23°C° 1.5 mm 5 mps 762 mmHg 98%
23:00 +23°C° 1.5 mm 4 mps 762 mmHg 98%

Pasado mañana, 28 Febrero, Domingo

Tiempo Temperatura Precipitaciones Viento Presión Humedad
00:00 +23°C° 1.5 mm 4 mps 761 mmHg 98%
01:00 +22°C° 1.4 mm 4 mps 761 mmHg 99%
02:00 +22°C° 1.4 mm 3 mps 760 mmHg 99%
03:00 +22°C° 1.4 mm 3 mps 760 mmHg 99%
04:00 +23°C° 1.9 mm 2 mps 760 mmHg 99%
05:00 +23°C° 1.9 mm 2 mps 760 mmHg 99%
06:00 +23°C° 1.9 mm 2 mps 760 mmHg 99%
07:00 +24°C° 2.2 mm 2 mps 760 mmHg 99%
08:00 +24°C° 2.2 mm 2 mps 761 mmHg 98%
09:00 +25°C° 2.2 mm 2 mps 761 mmHg 98%
10:00 +26°C° 2.1 mm 2 mps 761 mmHg 97%
11:00 +26°C° 2.1 mm 2 mps 761 mmHg 96%
12:00 +27°C° 2.1 mm 1 mps 760 mmHg 94%
13:00 +26°C° 1.6 mm 2 mps 760 mmHg 95%
14:00 +26°C° 1.6 mm 2 mps 759 mmHg 96%
15:00 +25°C° 1.6 mm 3 mps 759 mmHg 97%
16:00 +25°C° 1.8 mm 3 mps 759 mmHg 97%
17:00 +25°C° 1.8 mm 2 mps 759 mmHg 98%
18:00 +25°C° 1.8 mm 2 mps 759 mmHg 98%
19:00 +24°C° 1.6 mm 2 mps 759 mmHg 98%
20:00 +24°C° 1.6 mm 2 mps 760 mmHg 98%
21:00 +24°C° 1.6 mm 2 mps 760 mmHg 99%
22:00 +23°C° 2.4 mm 2 mps 760 mmHg 99%
23:00 +23°C° 2.4 mm 2 mps 760 mmHg 99%

1 Marzo, Lunes

Tiempo Temperatura Precipitaciones Viento Presión Humedad
00:00 +23°C° 2.4 mm 2 mps 760 mmHg 99%
01:00 +23°C° 0.4 mm 2 mps 760 mmHg 99%
02:00 +23°C° 0.4 mm 2 mps 759 mmHg 99%
03:00 +23°C° 0.4 mm 1 mps 758 mmHg 99%
04:00 +23°C° 0.2 mm 1 mps 759 mmHg 99%
05:00 +23°C° 0.2 mm 1 mps 759 mmHg 99%
06:00 +23°C° 0.2 mm 1 mps 759 mmHg 99%
07:00 +24°C° 0.1 mm 1 mps 759 mmHg 96%
08:00 +25°C° 0.1 mm 1 mps 759 mmHg 93%
09:00 +26°C° 0.1 mm 1 mps 759 mmHg 89%
10:00 +28°C° 0.1 mm 1 mps 759 mmHg 80%
11:00 +30°C° 0.1 mm 2 mps 759 mmHg 70%
12:00 +32°C° 0.1 mm 2 mps 758 mmHg 61%
13:00 +31°C° 0.6 mm 2 mps 758 mmHg 64%
14:00 +31°C° 0.6 mm 2 mps 757 mmHg 67%
15:00 +30°C° 0.6 mm 3 mps 757 mmHg 71%
16:00 +29°C° 0.2 mm 2 mps 757 mmHg 75%
17:00 +28°C° 0.2 mm 2 mps 757 mmHg 79%
18:00 +27°C° 0.2 mm 2 mps 757 mmHg 84%
19:00 +26°C° 1.5 mm 2 mps 757 mmHg 89%
20:00 +25°C° 1.5 mm 2 mps 758 mmHg 94%
21:00 +24°C° 1.5 mm 2 mps 758 mmHg 98%
22:00 +24°C° 3.9 mm 1 mps 759 mmHg 99%
23:00 +24°C° 3.9 mm 1 mps 759 mmHg 99%

2 Marzo, Martes

Tiempo Temperatura Precipitaciones Viento Presión Humedad
00:00 +24°C° 3.9 mm 1 mps 759 mmHg 99%
01:00 +24°C° 4 mm 2 mps 759 mmHg 99%
02:00 +24°C° 4 mm 2 mps 758 mmHg 99%
03:00 +24°C° 4 mm 3 mps 758 mmHg 99%
04:00 +24°C° 0.2 mm 2 mps 758 mmHg 99%
05:00 +24°C° 0.2 mm 2 mps 758 mmHg 99%
06:00 +24°C° 0.2 mm 2 mps 758 mmHg 99%
07:00 +25°C° 0 mm 1 mps 759 mmHg 96%
08:00 +26°C° 0 mm 1 mps 759 mmHg 93%
09:00 +27°C° 0 mm 1 mps 759 mmHg 90%
10:00 +28°C° 0.1 mm 2 mps 759 mmHg 82%
11:00 +30°C° 0.1 mm 2 mps 759 mmHg 74%
12:00 +31°C° 0.1 mm 3 mps 758 mmHg 67%
13:00 +31°C° 0.9 mm 3 mps 758 mmHg 71%
14:00 +31°C° 0.9 mm 3 mps 757 mmHg 76%
15:00 +30°C° 0.9 mm 3 mps 757 mmHg 80%
16:00 +29°C° 0.8 mm 3 mps 757 mmHg 84%
17:00 +28°C° 0.8 mm 2 mps 757 mmHg 87%
18:00 +27°C° 0.8 mm 2 mps 757 mmHg 91%
19:00 +26°C° 2.1 mm 2 mps 758 mmHg 93%
20:00 +25°C° 2.1 mm 2 mps 758 mmHg 96%
21:00 +25°C° 2.1 mm 3 mps 759 mmHg 99%
22:00 +25°C° 1.6 mm 3 mps 759 mmHg 99%
23:00 +24°C° 1.6 mm 3 mps 759 mmHg 99%

3 Marzo, Miércoles

Tiempo Temperatura Precipitaciones Viento Presión Humedad
00:00 +23°C° 1.6 mm 4 mps 760 mmHg 99%
01:00 +24°C° 0.1 mm 3 mps 759 mmHg 99%
02:00 +23°C° 0.1 mm 2 mps 759 mmHg 99%
03:00 +23°C° 0.1 mm 2 mps 758 mmHg 99%
04:00 +23°C° 0 mm 1 mps 758 mmHg 99%
05:00 +23°C° 0 mm 1 mps 758 mmHg 99%
06:00 +23°C° 0 mm 1 mps 759 mmHg 99%
07:00 +24°C° 0 mm 1 mps 759 mmHg 93%
08:00 +26°C° 0 mm 1 mps 760 mmHg 88%
09:00 +28°C° 0 mm 1 mps 760 mmHg 83%
10:00 +30°C° 0 mm 1 mps 760 mmHg 72%
11:00 +32°C° 0 mm 2 mps 759 mmHg 62%
12:00 +35°C° 0 mm 2 mps 759 mmHg 51%
13:00 +32°C° 2.1 mm 2 mps 758 mmHg 63%
14:00 +30°C° 2.1 mm 2 mps 758 mmHg 74%
15:00 +28°C° 2.1 mm 2 mps 758 mmHg 86%
16:00 +27°C° 1.9 mm 2 mps 757 mmHg 90%
17:00 +26°C° 1.9 mm 2 mps 757 mmHg 94%
18:00 +25°C° 1.9 mm 2 mps 757 mmHg 98%
19:00 +25°C° 0.3 mm 2 mps 758 mmHg 98%
20:00 +24°C° 0.3 mm 2 mps 758 mmHg 99%
21:00 +24°C° 0.3 mm 1 mps 759 mmHg 99%
22:00 +24°C° 0.1 mm 1 mps 759 mmHg 99%
23:00 +24°C° 0.1 mm 2 mps 759 mmHg 99%
Mostrar más

Necesitamos Su Consentimiento

Meteoprog y nuestros Proveedores de Servicios pueden almacenar y acceder a sus datos personales como cookies, identificadores de dispositivo u otras tecnologías similares de su dispositivo y procesar dichos datos para personalizar contenido y anuncios, además de ofrecer funciones de redes sociales y analizar el tráfico.

  • Almacenar y/o acceder a información en su dispositivo

    Se puede almacenar o acceder a cookies, identificadores de dispositivo u otra información de su dispositivo para los fines anteriormente indicados.

  • Anuncios y contenido personalizados, medición de anuncios y contenido, percepciones del público, y desarrollo de productos

    Los anuncios y el contenido pueden personalizarse en base a su perfil. Se pueden añadir más datos para personalizar mejor los anuncios y contenidos. Se puede medir el rendimiento de los anuncios y contenidos. Se puede obtener la percepción sobre el público que ha visto los anuncios y contenidos. Dichos datos pueden usarse para desarrollar o mejorar la experiencia del usuario, sistemas y software.

Al hacer clic en ‘Estoy De Acuerdo’ usted permitirá el uso de las cookies, identificadores de dispositivo, balizas web u otras tecnologías similares indicadas. Su configuración puede cambiarse desde el navegador de su dispositivo.

Para ciertos fines, los intereses legítimos pueden ser considerados por encima del consentimiento. Puede leer más sobre ello en nuestra Política de Privacidad y Cookies.